Regional Weather Roundup
Issued by NWS

Home | Current Version | Previous Version | Text Only | Print | Product List | Glossary On
Versions: 1 2 3 4 5 6 7 8 9 10 11 12 13 14 15 16 17 18 19 20 21 22 23 24 25 26 27 28 29 30 31 32 33 34 35 36 37 38 39 40 41 42 43 44 45 46 47 48 49 50
000
ASUS43 KMKX 210221
RWRWI

WISCONSIN REGIONAL WEATHER ROUNDUP
NATIONAL WEATHER SERVICE MILWAUKEE/SULLIVAN WI
800 PM CST MON FEB 20 2017

NOTE: "FAIR" INDICATES FEW OR NO CLOUDS BELOW 12,000 FEET WITH NO
SIGNIFICANT WEATHER AND/OR OBSTRUCTIONS TO VISIBILITY.

WIZ001-002-006>008-014>016-023>028-210300-
NORTHWEST WISCONSIN

CITY           SKY/WX    TMP DP  RH WIND       PRES   REMARKS
SUPERIOR ARPT  LGT RAIN  36  36 100 CALM      29.62F
ASHLAND        LGT RAIN  50  48  93 S10       29.65S
HAYWARD        LGT RAIN  50  48  93 S9        29.67S
SIREN          CLOUDY    50  49  97 S7        29.66F
CUMBERLAND     LGT RAIN  45  45 100 S10       29.69S VSB 1/2
RICE LAKE      RAIN      48  48  97 CALM      29.71F
CHETEK         RAIN      50  50 100 SE6       29.70F
LADYSMITH      RAIN      50  49  97 S9        29.74F
EAU CLAIRE     CLOUDY    52  51  97 S12       29.71F
MENOMONIE      CLOUDY    52  52 100 SW7       29.72R
NEW RICHMOND   CLOUDY    50  50 100 S7        29.70R FOG
OSCEOLA        CLOUDY    50  50 100 S9        29.71S
$$

WIZ003>005-009-010-017-018-210300-
NORTH CENTRAL WISCONSIN

CITY           SKY/WX    TMP DP  RH WIND       PRES   REMARKS
MANITOWISH WTR RAIN      45  45 100 S14       29.72R
ARBOR VITAE    RAIN      47  46  95 S14       29.73S
WOODRUFF       RAIN      47  46  95 S14       29.73S
RHINELANDER    LGT RAIN  47  47 100 S13G22    29.76S FOG
EAGLE RIVER    LGT RAIN  45  45 100 S10       29.74F
LAND O LAKES   RAIN      45  45  98 S10       29.75F
PHILLIPS       RAIN      48  48 100 S7        29.73S
TOMAHAWK       RAIN      44  43  97 S5        29.76S VSB 3/4
MEDFORD        LGT RAIN  47  46  99 SW9       29.77R
MERRILL        NOT AVBL
$$

WIZ029-030-035-036-043>047-210300-
CENTRAL WISCONSIN

CITY           SKY/WX    TMP DP  RH WIND       PRES   REMARKS
WAUSAU         RAIN      46  46 100 S12       29.77S FOG
MOSINEE        RAIN      46  46 100 S10       29.80R
MARSHFIELD     LGT RAIN  51  50  96 SW10      29.78R FOG
STEVENS POINT  RAIN      48  48 100 S9        29.81S
WAUPACA        DRIZZLE   50  48  93 SE8       29.82F
WAUTOMA        LGT RAIN  51  49  92 SE7       29.82F FOG
WISC RAPIDS    RAIN      53  53 100 S8        29.81S FOG
CAMP DOUGLAS   LGT RAIN  57  55  94 S8        29.80F
$$

WIZ011>013-019>022-031-037>040-048>050-210300-
NORTHEAST WISCONSIN

CITY           SKY/WX    TMP DP  RH WIND       PRES   REMARKS
ANTIGO         LGT RAIN  43  43 100 S26G35    29.79F
SHAWANO        RAIN      49  46  88 S9G16     29.83F
OCONTO         CLOUDY    43  39  87 S13G18    29.85F
STURGEON BAY   LGT RAIN  47  40  76 SE21G28   29.88F
GREEN BAY      LGT RAIN  51  45  79 SE22G30   29.85F
MANITOWOC      LGT RAIN  46  39  76 MISG      29.91F
APPLETON       DRIZZLE   50  43  76 SE16G24   29.83F
CLINTONVILLE   LGT RAIN  46  45  93 S9        29.82F
OSHKOSH        CLOUDY    52  45  77 S15       29.84F
$$

WIZ032>034-041-042-053>061-210300-
SOUTHWEST WISCONSIN

CITY           SKY/WX    TMP DP  RH WIND       PRES   REMARKS
LA CROSSE      LGT RAIN  55  54  96 S13       29.78F
SPARTA         DRIZZLE   55  55  99 SW6       29.81F
VIROQUA        CLOUDY    55  55 100 SW14      29.83R
BOSCOBEL       LGT RAIN  58  56  93 SW6       29.85R
PRAIRIE DU CHI DRIZZLE   55  54  96 CALM      29.84R
PLATTEVILLE    CLOUDY    55  55 100 S8        29.86S
$$

WIZ056-057-062-063-064-067-068-210300-
SOUTH CENTRAL WISCONSIN

CITY           SKY/WX    TMP DP  RH WIND       PRES   REMARKS
REEDSBURG      LGT RAIN  55  55 100 S13       29.84R
BARABOO/DELLS  DRIZZLE   55  52  91 S8        29.82F
LONE ROCK      RAIN      58  55  90 S16G24    29.85R FOG
MINERAL POINT  CLOUDY    55  55 100 S8        29.86S FOG
MADISON        LGT RAIN  57  52  83 S9        29.85S
MIDDLETON        N/A     58  54  86 S12G17    29.86S
WATERTOWN      CLOUDY    55  49  79 SE9       29.86F
MONROE         CLOUDY    59  52  77 SW12      29.89R
JANESVILLE     MOCLDY    63  52  67 S13G20    29.87S
$$

WIZ051-052-058>065-066-070>072-210300-
SOUTHEAST WISCONSIN

CITY           SKY/WX    TMP DP  RH WIND       PRES   REMARKS
MILWAUKEE      CLOUDY    59  41  51 S22G28    29.93S
WAUKESHA       CLOUDY    55  43  62 SE17      29.91F
MILWAUKEE/TIMM CLOUDY    57  39  51 S16G24    29.91F
RACINE         CLOUDY    52  39  61 S15G24    29.95S
KENOSHA        CLOUDY    58  43  57 S21       29.93S
FOND DU LAC    CLOUDY    54  44  69 SE20      29.84F
SHEBOYGAN      LGT RAIN  50  41  71 S17G25    29.91F
WEST BEND      CLOUDY    54  43  66 S12       29.89F
JUNEAU         CLOUDY    53  46  78 SE14      29.87S
$$

LSZ147-162-210300-
LAKE SUPERIOR

STATION/POSITION TIME  TEMP    WIND        PRES    WAVE
                       AIR SEA DIR/SP/G            HT/PER
                 (UTC) (F)     (DEG/KT/KT) (MB)    (FT/S)
DEVILS ISLAND    0200   47     190/  7/  8 1003.2F
PORT WING        0200   36      60/  2/  9 1003.4
SAXON HARBOR     0140   51     190/ 10/ 17 1004.1S
$$

LMZ867-665-643>646-210300-
LAKE MICHIGAN

STATION/POSITION TIME  TEMP    WIND        PRES    WAVE
                       AIR SEA DIR/SP/G            HT/PER
                 (UTC) (F)     (DEG/KT/KT) (MB)    (FT/S)
CHAMBERS ISLAND  0140   47     130/ 13/ 20 1011.2F
NORTHPORT PIER   0207   42     150/ 15/ 25 1011.9F
SISTER BAY       0020   45     160/ 18/ 23   N/A
KEWAUNEE LAKESHO 0154   41     180/ 10/ 13 1012.8F
SHEBOYGAN LAKESH 0200   44     160/ 18/ 19 1013.4F
PORT WASHINGTON  0140   43     210/  5/  9 1014.9R
MILWAUKEE LAKESH 0200   44     150/ 14/ 15   N/A
KENOSHA   LAKESH 0200   44     170/ 18/ 21 1013.5
$$

TC  - TEMPERATURE IN CELSIUS
VSB - VISIBILITY IN STATUTE MILES
WCI - WIND CHILL INDEX
HX  - HEAT INDEX




USA.gov is the U.S. government's official web portal to all federal, state and local government web resources and services.